Погода в Анге

Россия / Иркутская область     53°59′00″N   106°11′09″E
темп.,
°C
ветер,
м/с
пор.,
м/с
влажн.,
%
обл.,
%
осадки,
мм/ч
давл.,
гПа
погр.,
м
6 мая, чт
чт623:00−1сз4108362 0.0 1018355
02:00−2зсз258761 0.0 1019139
05:00−4зсз11895 0.0 101910
08:00+1зюз12638 0.0 1018385
11:00+5юз3339100 0.0 10141645
14:00+7ююз3528100 0.0 10102101
17:00+7зюз5740100 0.0 10081852
20:00+3з5886100 0.1 1008673
7 мая, пт
пт723:00+2зсз5108874 0.1 1008888
02:00+1сз5118368 0.3 1008921
05:00+1сз61177100 0.0 1010984
08:00+3с576679 0.0 10111047
11:00+5с565594 0.1 10121388
14:00+8ссз554393 0.1 10111746
17:00+8ссв544493 0.1 10121739
20:00+6св47565 0.1 1013232
8 мая, сб
сб823:00+1св22895 0.0 101541
02:00−1ссв2293100 0.0 101515
05:00−2ссв119317 0.0 101410
08:00+3св12675 0.0 1013409
11:00+8зюз324899 0.0 10111114
14:00+12з2334100 0.0 10092159
17:00+12зсз4435100 0.0 10082137
20:00+8ссз4755100 0.0 1011503
9 мая, вс
вс923:00+5сз378083 0.1 1013342
02:00+2зсз238781 0.1 101496
05:00+1ю0090100 0.0 101410
08:00+5юз2273100 0.0 1013471
11:00+5зюз2386100 0.1 1013620
14:00+7зсз236470 0.3 1012973
17:00+9зсз3353100 0.1 10101264
20:00+7зсз4570100 0.1 1012346
10 мая, пн
пн1023:00+5ссз3484100 0.1 1013480
02:00+4ссз4691100 0.7 1014661
05:00+3сз2495100 0.4 1016290
08:00+5ссз348095 0.4 1017576
11:00+8с3455100 0.1 10161559
14:00+9ссз555292 0.3 10171457
17:00+11сз454490 0.2 10161759
20:00+8сз476692 0.9 1018209